Orbital Elements at Epoch 2459200.5 (2020-Dec-17.0) TDB
Reference: JPL 19 (heliocentric ecliptic J2000)
Element | Value | Uncertainty (1-sigma) | Units |
e | .1496811728111347 | 3.5979e-08 | |
a | 2.379593926217487 | 9.7792e-09 | au |
q | 2.023413516527 | 8.4037e-08 | au |
i | 5.055739163303567 | 4.2602e-06 | deg |
node | 200.2736166741747 | 4.4612e-05 | deg |
peri | 81.15505808106546 | 4.768e-05 | deg |
M | 160.6155362869306 | 1.449e-05 | deg |
tp | 2458602.311918367088 (2019-Apr-28.81191837) | 5.4264e-05 | TDB |
period | 1340.765123762011 3.67 | 8.265e-06 2.263e-08 | d yr |
n | .2685034042277945 | 1.6552e-09 | deg/d |
Q | 2.735774335907973 | 1.1243e-08 | au |
|
| | Orbit Determination Parameters
Additional Information
|